AirNav   Everest Fuels
 
 270 users online  

MO63 St Luke's Northland Hospital Heliport
Kansas City, Missouri, USA

GOING TO KANSAS CITY?


FAA INFORMATION EFFECTIVE 20 JUNE 2019

Location

FAA Identifier: MO63
Lat/Long: 39-14-54.5100N / 094-38-51.1800W
39-14.908500N / 094-38.853000W
39.2484750 / -94.6475500
(estimated)
Elevation: 1061 ft. / 323 m (estimated)
Variation: 05E (1985)
From city: 12 miles N of KANSAS CITY, MO
Time zone: UTC -5 (UTC -6 during Standard Time)
Zip code: 64154

Heliport Operations

Heliport use: Private use, MEDICAL USE.
Activation date: 08/1989
Control tower: no
ARTCC: KANSAS CITY CENTER
FSS: COLUMBIA FLIGHT SERVICE STATION
Attendance: CONTINUOUS
Wind indicator: yes
Segmented circle: no
Lights: FOR PERIMETER LGTS CALL 816-891-6000.

Heliport Communications

WX ASOS at MCI (4 nm NW): PHONE 816-329-2808
WX ASOS at MKC (8 nm S): PHONE 816-329-2843
WX AWOS-3 at GPH (16 nm E): 120.275 (816-407-3399)

Nearby radio navigation aids

VOR radial/distance  VOR name  Freq  Var
MCIr113/4.7KANSAS CITY VORTAC113.2505E
ANXr284/25.8NAPOLEON VORTAC114.0007E

 
NDB name  Hdg/Dist  Freq  Var  ID
AMAZON158/40.023304EAZN .- --.. -.

Heliport Services

Runway Information

Helipad H1

Dimensions: 40 x 40 ft. / 12 x 12 m
Surface: concrete
Runway edge lights: PERI
Latitude: 39-14.908500N
Longitude: 094-38.853000W
Elevation: 1061.0 ft.
Traffic pattern: leftleft

Heliport Ownership and Management from official FAA records

Ownership: Privately-owned
Owner: ST LUKE'S NORTH
5830 NW BARRY ROAD
KANSAS CITY, MO 64154
Phone 816-891-6000
Manager: MITCH LEWIS
5830 NW BARRY ROAD
KANSAS CITY, MO 64154
Phone (816) 880-6018
DONNA KUNZ, 816-880-6540

Additional Remarks

FOR CD CTC KANSAS CITY APCH AT 816-329-2710.

Instrument Procedures

There are no published instrument procedures at MO63.

Some nearby airports with instrument procedures:

KMCI - Kansas City International Airport (4 nm NW)
KMKC - Charles B Wheeler Downtown Airport (8 nm S)
KFLV - Sherman Army Airfield (14 nm NW)
KGPH - Midwest National Air Center Airport (16 nm E)
3EX - Excelsior Springs Memorial Airport (22 nm E)
 
Loc | Ops | Rwys | IFR | FBO | Links
Com | Nav | Svcs | Stats | Notes

Kansas City Aviation Department
 
Area around MO63 (St Luke's Northland Hospital Heliport)
 
Road maps at: MapQuest Bing Google
 
Aerial photo
No photo
 
Sectional chart

 
Airport distance calculator
Flying to St Luke's Northland Hospital Heliport? Find the distance to fly.

From to MO63

Sunrise and sunset
Times for 20-Jun-2019
 Local
(UTC-5)
 Zulu
(UTC)
Morning civil twilight05:2110:21
Sunrise05:5310:53
Sunset20:4701:47
Evening civil twilight21:1902:19

Current date and time
Zulu (UTC)  20-Jun-2019 08:44:59
Local (UTC-5)  20-Jun-2019 03:44:59
 
METAR
KMCI 
5nm NW 
200753Z 18005KT 8SM CLR 17/16 A2973 RMK AO2 SLP060 T01670161
KMKC 
8nm S 
200754Z 13003KT 10SM CLR 20/16 A2973 RMK AO2 SLP060 T02000161
KGPH 
16nm E 
200835Z AUTO 00000KT 4SM BR CLR 16/16 A2974 RMK AO2
TAF
KMCI 
5nm NW 
200520Z 2006/2106 36005KT P6SM BKN100 FM200900 VRB03KT 5SM BR FEW100 FM201400 19008KT P6SM FEW060
KMKC 
8nm S 
200520Z 2006/2106 36004KT P6SM BKN100 FM200900 VRB03KT 6SM BR FEW100 FM201300 19007KT P6SM FEW060
NOTAMs
Click for the latest NOTAMs
NOTAMs are issued by the DoD/FAA and will open in a separate window not controlled by AirNav.

 

 
 

Would you like to see your business listed on this page?

 If your business provides an interesting product or service to pilots, flight crews, aircraft, or users of the St Luke's Northland Hospital Heliport, you should consider listing it here.  To start the listing process, click on the button below
 
Add a business
 

Other Pages about St Luke's Northland Hospital Heliport

Update a link
 
Copyright © AirNav, LLC. All rights reserved. Privacy Policy  Contact